Regional Weather Roundup
Issued by NWS Upton, NY

Current Version | Previous Version | Graphics & Text | Print | Product List | Glossary Off
Versions: 1 2 3 4 5 6 7 8 9 10 11 12 13 14 15 16 17 18 19 20 21 22 23 24 25 26 27 28 29 30 31 32 33 34 35 36 37 38 39 40 41 42 43 44 45 46 47 48 49 50

000
ASUS41 KOKX 271005
RWROKX

REGIONAL WEATHER ROUNDUP
NATIONAL WEATHER SERVICE NEW YORK NY
500 AM EST TUE JAN 27 2015

NOTE: "FAIR" INDICATES FEW OR NO CLOUDS BELOW 12,000 FEET WITH NO
SIGNIFICANT WEATHER AND/OR OBSTRUCTIONS TO VISIBILITY.

NYZ071-072-176-178-NJZ106-104-271100-
NEW YORK CITY METRO AREA


CITY           SKY/WX    TMP DP  RH WIND       PRES   REMARKS
CENTRAL PARK   LGT SNOW  21  15  78 N10G17    29.69R VSB 3/4 WCI  10
LAGUARDIA APRT NOT AVBL
KENNEDY INTL   LGT SNOW  21  18  86 N22G29    29.63F VSB 3/4 WCI   5
NEWARK/LIBERTY NOT AVBL
BRNX BOT. GARD   N/A    N/A N/A N/A NW18      29.66F
TETERBORO      NOT AVBL
$$

NYZ177-179-078>081-271100-
LONG ISLAND NEW YORK

CITY           SKY/WX    TMP DP  RH WIND       PRES   REMARKS
FARMINGDALE    NOT AVBL
ISLIP          NOT AVBL
SHIRLEY        NOT AVBL
WESTHAMPTON    NOT AVBL
MONTAUK POINT  NOT AVBL
$$

NYZ052-065-067-271100-
HUDSON VALLEY

CITY           SKY/WX    TMP DP  RH WIND       PRES   REMARKS
WHITE PLAINS   NOT AVBL
NEWBURGH       NOT AVBL
MONTGOMERY     LGT SNOW  18  14  86 N14       29.72F FOG     WCI   4
POUGHKEEPSIE   NOT AVBL
ALBANY         NOT AVBL
$$

NJZ001-105-106-008-010-013-015-019>022-104-271100-
NEW JERSEY

CITY           SKY/WX    TMP DP  RH WIND       PRES   REMARKS
NEWARK/LIBERTY NOT AVBL
TETERBORO      NOT AVBL
CALDWELL       NOT AVBL
MORRISTOWN     NOT AVBL
SOMERVILLE     NOT AVBL
SUSSEX         NOT AVBL
ANDOVER        NOT AVBL
TRENTON        NOT AVBL
MILLVILLE      NOT AVBL
ATLANTIC CITY  NOT AVBL
WRIGHTSTOWN    LGT SNOW  23  19  86 NW16      29.65R FOG     WCI  10
TOMS RIVER     NOT AVBL
BELMAR         NOT AVBL
$$

PAZ047>061-062-071-271100-
EASTERN PENNSYLVANIA

CITY           SKY/WX    TMP DP  RH WIND       PRES   REMARKS
PHILADELPHIA   NOT AVBL
ALLENTOWN      NOT AVBL
SCRANTON       NOT AVBL
$$

CTZ002-004>006-009-010-012-RIZ004-006-007-MAZ004-011-015-271100-
SOUTHERN NEW ENGLAND
 IN CT

CITY           SKY/WX    TMP DP  RH WIND       PRES   REMARKS
BRADLEY INTL   NOT AVBL
HARTFORD       NOT AVBL
DANBURY        NOT AVBL
WTRBRY/OXFORD  NOT AVBL
BRIDGEPORT     NOT AVBL
MERIDEN        NOT AVBL
NEW HAVEN      NOT AVBL
CHESTER        NOT AVBL
GROTON         NOT AVBL
WILLIMANTIC    NOT AVBL

 IN RI

CITY           SKY/WX    TMP DP  RH WIND       PRES   REMARKS
PROVIDENCE     NOT AVBL
BLOCK ISLAND   NOT AVBL
WESTERLY       NOT AVBL

 IN MA

CITY           SKY/WX    TMP DP  RH WIND       PRES   REMARKS
BOSTON         NOT AVBL
WORCESTER      NOT AVBL
WESTFIELD      NOT AVBL
PROVINCETOWN   NOT AVBL
NANTUCKET      NOT AVBL
$$

ANZ330-335-338-340-345-350-353-355-271100-
COASTAL MARINE OBSERVATIONS


STATION/POSITION TIME  SKY/WX   TEMP    WIND        PRES    VSBY  WAVE
                                AIR SEA DIR/SP/G                  HT/PER
                 (UTC)          (F)     (DEG/KT/KT) (MB)    (MI)  (FT/S)
NY HARB ENTRANCE 0900            27 43  360/ 27/ 33 1001.6         10/11
4S FIRE IS       0900               39                N/A          10/11
20S FIRE ISLAND  0900               43               999.5         14/11
23SW MTP         0900                                 N/A          18/11
HUDSON CANYON    NOT AVBL
EXECUTION ROCKS  0900            23 34  350/ 17/ 25   N/A
WESTERN LI SOUND 0900            24      20/ 19/ 25   N/A           3/ 6
CENTRAL LI SOUND 0900            21 36  360/ 27/ 37   N/A           4/ 4
EASTERN LI SOUND NOT AVBL
ROBBINS REEF     0900            21     360/ 24/ 33 1003.2
$$


>>>>>>>>>>>>>>>>>>>>>>>>>>>> KEY <<<<<<<<<<<<<<<<<<<<<<<<<<<
>                                                          <
>     SKY/WX - SKY CONDITION/PRESENT WEATHER               <
>     TMP    - TEMPERATURE IN FAHRENHEIT                   <
>     DP     - DEWPOINT IN FAHRENHEIT                      <
>     RH     - RELATIVE HUMIDITY IN PERCENT                <
>     WIND   - DIRECTION AND SPEED IN MPH                  <
>     PRES   - MEAN SEA LEVEL PRESSURE IN INCHES OF HG     <
>     WCI    - WIND CHILL INDEX                            <
>     VSB    - VISIBILITY IN MILES                         <
>     HX     - HEAT INDEX                                  <
>     TC     - TEMPERATURE IN CELSIUS                      <
>     VRB    - VARIABLE WIND DIRECTION                     <
>                                                          <
>>>>>>>>>>>>>>>>>>>>>>>>>>>> KEY <<<<<<<<<<<<<<<<<<<<<<<<<<<





USA.gov is the U.S. government's official web portal to all federal, state and local government web resources and services.